Location: Bailleul
(50.3375°N, 2.8513°E)
Time: 10:37:23
(UTC+00:00)

Cosmos 1689 Rocket - Pass Details

Date: 19 April 2021
Orbit: 346 x 360 km, 97.5° (Epoch: 05 May)

Event Time Altitude Azimuth Distance (km) Brightness Sun altitude
Rises 19:24:14 0° 7° (N) 2,194 6.2 -5.9°
Reaches altitude 10° 19:26:13 10° 0° (N) 1,340 5.2 -6.2°
Maximum altitude 19:28:56 41° 289° (WNW) 530 3.5 -6.6°
Drops below altitude 10° 19:31:36 10° 216° (SW) 1,319 4.9 -7.0°
Sets 19:33:33 0° 209° (SSW) 2,154 5.9 -7.2°
